Location: Newark
(49.2191°N, 12.6671°E)
Time: 15:07:04
(UTC+00:00)

Transit 4A - Pass Details

Date: 27 January 2020
Orbit: 872 x 973 km, 66.8° (Epoch: 26 February)

Event Time Altitude Azimuth Distance (km) Brightness Sun altitude
Rises 11:48:55 0° 323° (NW) 3,481 10.5 22.0°
Reaches altitude 10° 11:51:52 10° 337° (NNW) 2,534 9.8 21.9°
Maximum altitude 11:56:40 26° 32° (NNE) 1,674 8.9 21.8°
Drops below altitude 10° 12:01:27 10° 88° (E) 2,530 10.1 21.7°
Sets 12:04:23 0° 101° (E) 3,473 10.9 21.6°
